Regional Weather Roundup
Issued by NWS

Home | Current Version | Previous Version | Text Only | Print | Product List | Glossary Off
Versions: 1 2 3 4 5 6 7 8 9 10 11 12 13 14 15 16 17 18 19 20 21 22 23 24 25 26 27 28 29 30 31 32 33 34 35 36 37 38 39 40 41 42 43 44 45 46 47 48 49 50

371
ASUS43 KLMK 251110
RWRKY
KENTUCKY REGIONAL WEATHER ROUNDUP
NATIONAL WEATHER SERVICE LOUISVILLE KY
700 AM EDT SAT MAR 25 2017

NOTE "FAIR" INDICATES FEW OR NO CLOUDS BELOW 12,000 FEET
WITH NO SIGNIFICANT WEATHER AND/OR OBSTRUCTIONS TO VISIBILITY.

KYZ001>023-026-027-061>063-070>075-251200-
WESTERN AND SOUTH CENTRAL KENTUCKY

CITY           SKY/WX    TMP DP  RH WIND       PRES   REMARKS
PADUCAH        LGT RAIN  56  53  90 SE9       29.98S
HENDERSON      CLOUDY    63  54  72 S20G30    30.00R
OWENSBORO      CLOUDY    63  53  70 S15       30.01S
HOPKINSVILLE   CLOUDY    66  54  66 S12G21    30.01S
BOWLING GREEN  CLOUDY    65  50  58 S15       30.07R
GLASGOW        CLEAR     62  48  61 S6        30.09R
$$

KYZ024-025-028>034-038-045-046-053-251200-
NORTH CENTRAL KENTUCKY

CITY           SKY/WX    TMP DP  RH WIND       PRES   REMARKS
LOUISVILLE/SDF MOCLDY    59  46  62 SE8       30.08R
LOUISVILLE/LOU PTCLDY    61  48  62 SE5       30.09R
FORT KNOX      PTCLDY    59  49  68 SE12      30.07R
$$

KYZ035>037-039>044-047>052-055>060-089>105-251200-
NORTHEAST KENTUCKY

CITY           SKY/WX    TMP DP  RH WIND       PRES   REMARKS
LEXINGTON      CLEAR     57  46  66 S9        30.13R
COVINGTON      MOCLDY    57  49  74 S10       30.11R
FRANKFORT      CLEAR     57  46  66 SE7       30.11R
$$

KYZ054-064>069-076>088-106>120-251200-
SOUTHEAST KENTUCKY

CITY           SKY/WX    TMP DP  RH WIND       PRES   REMARKS
JACKSON        CLOUDY    61  46  57 S5        30.19R
LONDON         PTCLDY    58  44  60 SE3       30.17S
SOMERSET       CLEAR     59  45  58 S7        30.17R
MIDDLESBORO    MOCLDY    50  47  90 CALM      30.23S
MONTICELLO     SUNNY     62  48  60 SE9G17    30.16R
$$





USA.gov is the U.S. government's official web portal to all federal, state and local government web resources and services.